Weather History for Auburn, IN

Change the Weather History Date:

Friday, December 27, 2013

  Actual Average (KFWA) Record (KFWA)
Temperature  
Mean Temperature 36 °F 26 °F  
Max Temperature 42 °F 33 °F 65 °F (2008)
Min Temperature 30 °F 19 °F -8 °F (1950)
Degree Days  
Heating Degree Days 29 39  
Month to date heating degree days 955  
Since 1 July heating degree days 2172  
Cooling Degree Days 0 0  
Month to date cooling degree days 0  
Year to date cooling degree days 809  
Moisture  
Dew Point 28 °F    
Average Humidity 73    
Maximum Humidity 86    
Minimum Humidity 61    
Precipitation  
Precipitation 0.00 in 0.08 in 1.47 in (1968)
Month to date precipitation 2.43  
Year to date precipitation 38.00  
Snow  
Snow 0.00 in 0.40 in 4.20 in (1915)
Month to date snowfall 7.2  
Since 1 July snowfall 9.3  
Snow Depth -    
Sea Level Pressure  
Sea Level Pressure 30.24 in    
Wind  
Wind Speed 6 mph (SW)    
Max Wind Speed 13 mph    
Max Gust Speed 22 mph    
Visibility 10 miles    
Events      
T = Trace of Precipitation, MM = Missing Value Source: NWS Daily Summary

Daily Weather History Graph

Daily Weather History Graph

Search for Another Location

Airport:

Trip Planner

Search our weather history database for the weather conditions in past years. The results will help you decide how hot, cold, wet, or windy it might be!

Date:

Astronomy

Dec. 27, 2013 Rise Set
Actual Time 8:05 AM EST 5:17 PM EST
Civil Twilight 7:33 AM EST 5:49 PM EST
Nautical Twilight 6:59 AM EST 6:24 PM EST
Astronomical Twilight 6:25 AM EST 6:57 PM EST
Moon 2:33 AM EST (12/27) 1:29 PM EST (12/27)
Length of Visible Light 10h 15m
Length of Day
9h 12m
Waning Crescent, 28% of the Moon is Illuminated
Dec 27
Waning Crescent
Jan 1
New
Jan 7
First Quarter
Jan 15
Full
Jan 24
Last Quarter

Hourly Weather History & Observations

Time (EST) Temp. Windchill Dew Point Humidity Pressure Visibility Wind Dir Wind Speed Gust Speed Precip Events Conditions
12:15 AM 32.0 °F 27.5 °F 23.0 °F 69% 30.24 in 10.0 mi SW 4.6 mph - N/A   Overcast
12:35 AM 32.0 °F 26.4 °F 23.0 °F 69% 30.23 in 10.0 mi SW 5.8 mph - N/A   Overcast
12:55 AM 32.0 °F 26.4 °F 23.0 °F 69% 30.23 in 10.0 mi SSW 5.8 mph - N/A   Overcast
1:15 AM 32.0 °F 26.4 °F 23.0 °F 69% 30.23 in 10.0 mi SW 5.8 mph - N/A   Overcast
1:35 AM 33.8 °F 27.7 °F 23.0 °F 65% 30.23 in 10.0 mi SW 6.9 mph - N/A   Overcast
1:55 AM 33.8 °F 27.7 °F 24.8 °F 70% 30.23 in 10.0 mi SW 6.9 mph - N/A   Overcast
2:15 AM 33.8 °F 27.0 °F 24.8 °F 70% 30.23 in 10.0 mi SW 8.1 mph - N/A   Overcast
2:35 AM 33.8 °F 27.7 °F 24.8 °F 70% 30.23 in 10.0 mi SW 6.9 mph - N/A   Overcast
2:55 AM 33.8 °F 27.0 °F 24.8 °F 70% 30.23 in 10.0 mi SW 8.1 mph - N/A   Overcast
3:15 AM 33.8 °F 28.6 °F 24.8 °F 70% 30.23 in 10.0 mi SW 5.8 mph - N/A   Overcast
3:35 AM 33.8 °F 27.0 °F 24.8 °F 70% 30.23 in 10.0 mi SW 8.1 mph - N/A   Overcast
3:55 AM 33.8 °F 27.0 °F 24.8 °F 70% 30.23 in 10.0 mi SW 8.1 mph - N/A   Overcast
4:15 AM 33.8 °F 27.0 °F 24.8 °F 70% 30.23 in 10.0 mi SW 8.1 mph - N/A   Overcast
4:35 AM 33.8 °F 27.7 °F 26.6 °F 75% 30.23 in 10.0 mi SW 6.9 mph - N/A   Overcast
4:55 AM 33.8 °F 27.7 °F 26.6 °F 75% 30.23 in 10.0 mi SW 6.9 mph - N/A   Overcast
5:15 AM 33.8 °F 30.8 °F 26.6 °F 75% 30.24 in 10.0 mi SW 3.5 mph - N/A   Overcast
5:35 AM 33.8 °F 28.6 °F 26.6 °F 75% 30.23 in 10.0 mi SW 5.8 mph - N/A   Overcast
5:55 AM 32.0 °F 27.5 °F 26.6 °F 80% 30.24 in 10.0 mi WSW 4.6 mph - N/A   Overcast
6:15 AM 32.0 °F 26.4 °F 26.6 °F 80% 30.25 in 10.0 mi WSW 5.8 mph - N/A   Overcast
6:35 AM 32.0 °F - 26.6 °F 80% 30.25 in 10.0 mi Calm Calm - N/A   Overcast
6:55 AM 32.0 °F 28.7 °F 26.6 °F 80% 30.26 in 10.0 mi SSW 3.5 mph - N/A   Overcast
7:15 AM 32.0 °F 28.7 °F 26.6 °F 80% 30.26 in 10.0 mi SSW 3.5 mph - N/A   Mostly Cloudy
7:35 AM 32.0 °F 28.7 °F 24.8 °F 75% 30.27 in 10.0 mi SW 3.5 mph - N/A   Scattered Clouds
7:55 AM 30.2 °F 26.7 °F 24.8 °F 80% 30.28 in 10.0 mi SW 3.5 mph - N/A   Scattered Clouds
8:15 AM 30.2 °F 25.4 °F 24.8 °F 80% 30.29 in 10.0 mi SW 4.6 mph - N/A   Clear
8:35 AM 30.2 °F 24.3 °F 26.6 °F 86% 30.31 in 10.0 mi SW 5.8 mph - N/A   Scattered Clouds
8:55 AM 32.0 °F 26.4 °F 26.6 °F 80% 30.30 in 10.0 mi SSW 5.8 mph - N/A   Mostly Cloudy
9:15 AM 32.0 °F 26.4 °F 26.6 °F 80% 30.31 in 10.0 mi SSW 5.8 mph - N/A   Overcast
9:35 AM 32.0 °F 27.5 °F 26.6 °F 80% 30.31 in 10.0 mi SSW 4.6 mph - N/A   Mostly Cloudy
9:55 AM 32.0 °F 27.5 °F 26.6 °F 80% 30.31 in 10.0 mi SSW 4.6 mph - N/A   Scattered Clouds
10:15 AM 33.8 °F 28.6 °F 26.6 °F 75% 30.31 in 10.0 mi SW 5.8 mph - N/A   Mostly Cloudy
10:35 AM 35.6 °F 29.9 °F 28.4 °F 75% 30.31 in 10.0 mi SW 6.9 mph - N/A   Mostly Cloudy
10:55 AM 35.6 °F 30.7 °F 28.4 °F 75% 30.32 in 10.0 mi SSW 5.8 mph - N/A   Scattered Clouds
11:15 AM 35.6 °F 31.7 °F 28.4 °F 75% 30.31 in 10.0 mi SW 4.6 mph - N/A   Clear
11:35 AM 35.6 °F 30.7 °F 28.4 °F 75% 30.31 in 10.0 mi SSW 5.8 mph - N/A   Clear
11:55 AM 35.6 °F 30.7 °F 28.4 °F 75% 30.30 in 10.0 mi SW 5.8 mph - N/A   Clear
12:15 PM 37.4 °F 31.4 °F 28.4 °F 70% 30.30 in 10.0 mi SSW 8.1 mph - N/A   Clear
12:35 PM 37.4 °F 32.1 °F 28.4 °F 70% 30.28 in 10.0 mi SSW 6.9 mph - N/A   Clear
12:55 PM 39.2 °F 34.2 °F 28.4 °F 65% 30.28 in 10.0 mi SW 6.9 mph - N/A   Clear
1:15 PM 41.0 °F 35.8 °F 30.2 °F 65% 30.27 in 10.0 mi SSW 8.1 mph - N/A   Clear
1:35 PM 41.0 °F 35.8 °F 30.2 °F 65% 30.25 in 10.0 mi SSW 8.1 mph - N/A   Clear
1:55 PM 41.0 °F 34.3 °F 28.4 °F 61% 30.25 in 10.0 mi SW 11.5 mph - N/A   Clear
2:15 PM 41.0 °F 35.2 °F 30.2 °F 65% 30.25 in 10.0 mi SW 9.2 mph - N/A   Clear
2:35 PM 41.0 °F 35.8 °F 30.2 °F 65% 30.24 in 10.0 mi SSW 8.1 mph - N/A   Clear
2:55 PM 41.0 °F 35.8 °F 30.2 °F 65% 30.24 in 10.0 mi SSW 8.1 mph - N/A   Clear
3:15 PM 42.8 °F 38.0 °F 30.2 °F 61% 30.23 in 10.0 mi SW 8.1 mph - N/A   Clear
3:35 PM 42.8 °F 37.5 °F 30.2 °F 61% 30.23 in 10.0 mi SW 9.2 mph - N/A   Clear
3:55 PM 41.0 °F 36.4 °F 30.2 °F 65% 30.23 in 10.0 mi SW 6.9 mph - N/A   Clear
4:15 PM 41.0 °F 35.8 °F 30.2 °F 65% 30.22 in 10.0 mi SW 8.1 mph - N/A   Clear
4:35 PM 41.0 °F 35.8 °F 30.2 °F 65% 30.22 in 10.0 mi SW 8.1 mph - N/A   Clear
4:55 PM 41.0 °F 36.4 °F 30.2 °F 65% 30.22 in 10.0 mi SW 6.9 mph - N/A   Clear
5:15 PM 39.2 °F 34.2 °F 30.2 °F 70% 30.21 in 10.0 mi SSW 6.9 mph - N/A   Clear
5:35 PM 37.4 °F 32.8 °F 30.2 °F 75% 30.21 in 10.0 mi SSW 5.8 mph - N/A   Clear
5:55 PM 37.4 °F 32.1 °F 30.2 °F 75% 30.21 in 10.0 mi SSW 6.9 mph - N/A   Clear
6:15 PM 37.4 °F 33.8 °F 30.2 °F 75% 30.21 in 10.0 mi SSW 4.6 mph - N/A   Clear
6:35 PM 35.6 °F 31.7 °F 30.2 °F 81% 30.20 in 10.0 mi SSW 4.6 mph - N/A   Clear
6:55 PM 35.6 °F 30.7 °F 30.2 °F 81% 30.21 in 10.0 mi SSW 5.8 mph - N/A   Clear
7:15 PM 37.4 °F 32.8 °F 30.2 °F 75% 30.21 in 10.0 mi SSW 5.8 mph - N/A   Clear
7:35 PM 37.4 °F 32.1 °F 30.2 °F 75% 30.21 in 10.0 mi SSW 6.9 mph - N/A   Clear
7:55 PM 37.4 °F 30.8 °F 30.2 °F 75% 30.20 in 10.0 mi SSW 9.2 mph - N/A   Clear
8:35 PM 37.4 °F 30.8 °F 30.2 °F 75% 30.19 in 10.0 mi SSW 9.2 mph - N/A   Clear
8:55 PM 37.4 °F 30.8 °F 30.2 °F 75% 30.18 in 10.0 mi SSW 9.2 mph - N/A   Clear
9:15 PM 37.4 °F 30.8 °F 30.2 °F 75% 30.17 in 10.0 mi SSW 9.2 mph 16.1 mph N/A   Clear
9:35 PM 37.4 °F 30.8 °F 30.2 °F 75% 30.17 in 10.0 mi SSW 9.2 mph - N/A   Clear
9:55 PM 37.4 °F 29.8 °F 30.2 °F 75% 30.17 in 10.0 mi SSW 11.5 mph 17.3 mph N/A   Clear
10:15 PM 37.4 °F 29.3 °F 30.2 °F 75% 30.16 in 10.0 mi SSW 12.7 mph 20.7 mph N/A   Clear
10:35 PM 37.4 °F 30.3 °F 30.2 °F 75% 30.16 in 10.0 mi SSW 10.4 mph 17.3 mph N/A   Clear
10:55 PM 37.4 °F 30.3 °F 30.2 °F 75% 30.15 in 10.0 mi SW 10.4 mph 19.6 mph N/A   Clear
11:15 PM 37.4 °F 29.8 °F 30.2 °F 75% 30.15 in 10.0 mi SW 11.5 mph 21.9 mph N/A   Clear
11:35 PM 37.4 °F 29.3 °F 30.2 °F 75% 30.14 in 10.0 mi SSW 12.7 mph 20.7 mph N/A   Clear
11:55 PM 37.4 °F 29.8 °F 30.2 °F 75% 30.13 in 10.0 mi SW 11.5 mph 19.6 mph N/A   Clear